Find Starlink 31964

NORAD ID: 59895 Int'l Des: 2024-100 Owner: SPXS Country: US Constellation: starlink operational
LEOCIRCULAR

現在のビュー

3D地球を読み込み中...

About Starlink 31964

Starlink 31964 (NORAD 59895) is a starlink constellation satellite (v2 mini) launched May 28, 2024 by SPXS of US. It operates in LEO, CIRCULAR orbit with a mass of 730.00 kg.

次回通過

Passes for default location (London). Set your location on the main map for personalized predictions.

高度履歴

Loading altitude history...

軌道要素

1 59895U 24100L 26237.07813556 -.00000124 00000-0 50298-5 0 9995
2 59895 42.9999 254.0872 0001082 275.1002 84.9726 15.27574971126863
Epoch: Aug 25, 2026 • Age: 13 hours

現在のステータス

高度 483.8 km
遠地点 / 近地点 N/A
速度 7.62 km/s
衛星直下点 -5.71°S, 125.59°W
打ち上げ日 May 28, 2024
運用期間 2.2 years
タイプ internet

技術仕様

分類 Payload
質量 730.00 kg
乾燥質量 700.00 kg
総質量 730.00 kg
長さ 0.30 m
直径 4.10 m
スパン 29.00 m
形状 Box + pan
製造者 SPXS
バスタイプ Starlink V2M
フェーズステータス In Orbit
所有者/国 SPXS/US

Most Searched